Year,Month,Day,Hour,Minute,Value (Times are PST for temperature in C)
2007,08,15,00,00,17.50
2007,08,15,00,01,17.50
2007,08,15,00,02,17.60
2007,08,15,00,03,17.60
2007,08,15,00,04,17.60
2007,08,15,00,05,17.60
2007,08,15,00,06,17.60
2007,08,15,00,07,17.60
2007,08,15,00,08,17.60
2007,08,15,00,09,17.60
2007,08,15,00,10,17.50
2007,08,15,00,11,17.50
2007,08,15,00,12,17.50
2007,08,15,00,13,17.40
2007,08,15,00,14,17.40
2007,08,15,00,15,17.40
2007,08,15,00,16,17.30
2007,08,15,00,17,17.30
2007,08,15,00,18,17.40
2007,08,15,00,19,17.40
2007,08,15,00,20,17.40
2007,08,15,00,21,17.50
2007,08,15,00,22,17.50
2007,08,15,00,23,17.50
2007,08,15,00,24,17.60
2007,08,15,00,25,17.60
2007,08,15,00,26,17.70
2007,08,15,00,27,17.70
2007,08,15,00,28,17.70
2007,08,15,00,29,17.80
2007,08,15,00,30,17.80
2007,08,15,00,31,17.80
2007,08,15,00,32,17.90
2007,08,15,00,33,17.90
2007,08,15,00,34,17.90
2007,08,15,00,35,17.90
2007,08,15,00,36,17.90
2007,08,15,00,37,17.90
2007,08,15,00,38,18.00
2007,08,15,00,39,18.10
2007,08,15,00,40,18.10
2007,08,15,00,41,18.10
2007,08,15,00,42,18.10
2007,08,15,00,43,18.10
2007,08,15,00,44,18.10
2007,08,15,00,45,17.90
2007,08,15,00,46,17.90
2007,08,15,00,47,17.90
2007,08,15,00,48,17.90
2007,08,15,00,49,17.90
2007,08,15,00,50,17.90
2007,08,15,00,51,17.90
2007,08,15,00,52,18.00
2007,08,15,00,53,18.10
2007,08,15,00,54,18.10
2007,08,15,00,55,18.10
2007,08,15,00,56,18.10
2007,08,15,00,57,18.10
2007,08,15,00,58,18.00
2007,08,15,00,59,17.90
2007,08,15,01,00,17.90
2007,08,15,01,01,17.90
2007,08,15,01,02,17.90
2007,08,15,01,03,17.90
2007,08,15,01,04,17.90
2007,08,15,01,05,17.90
2007,08,15,01,06,17.90
2007,08,15,01,07,17.90
2007,08,15,01,08,17.90
2007,08,15,01,09,17.90
2007,08,15,01,10,18.00
2007,08,15,01,11,18.10
2007,08,15,01,12,18.10
2007,08,15,01,13,18.10
2007,08,15,01,14,18.20
2007,08,15,01,15,18.20
2007,08,15,01,16,18.20
2007,08,15,01,17,18.20
2007,08,15,01,18,18.10
2007,08,15,01,19,18.10
2007,08,15,01,20,18.10
2007,08,15,01,21,18.10
2007,08,15,01,22,18.10
2007,08,15,01,23,18.10
2007,08,15,01,24,18.10
2007,08,15,01,25,18.10
2007,08,15,01,26,18.10
2007,08,15,01,27,18.10
2007,08,15,01,28,18.10
2007,08,15,01,29,18.10
2007,08,15,01,30,18.00
2007,08,15,01,31,17.90
2007,08,15,01,32,17.90
2007,08,15,01,33,17.90
2007,08,15,01,34,17.80
2007,08,15,01,35,17.70
2007,08,15,01,36,17.50
2007,08,15,01,37,17.40
2007,08,15,01,38,17.30
2007,08,15,01,39,17.20
2007,08,15,01,40,17.00
2007,08,15,01,41,16.90
2007,08,15,01,42,16.80
2007,08,15,01,43,16.70
2007,08,15,01,44,16.60
2007,08,15,01,45,16.50
2007,08,15,01,46,16.40
2007,08,15,01,47,16.40
2007,08,15,01,48,16.40
2007,08,15,01,49,16.20
2007,08,15,01,50,16.10
2007,08,15,01,51,16.10
2007,08,15,01,52,16.10
2007,08,15,01,53,15.90
2007,08,15,01,54,15.90
2007,08,15,01,55,15.80
2007,08,15,01,56,15.80
2007,08,15,01,57,15.80
2007,08,15,01,58,15.70
2007,08,15,01,59,15.70
2007,08,15,02,00,15.70
2007,08,15,02,01,15.60
2007,08,15,02,02,15.60
2007,08,15,02,03,15.50
2007,08,15,02,04,15.50
2007,08,15,02,05,15.50
2007,08,15,02,06,15.40
2007,08,15,02,07,15.40
2007,08,15,02,08,15.40
2007,08,15,02,09,15.30
2007,08,15,02,10,15.30
2007,08,15,02,11,15.30
2007,08,15,02,12,15.30
2007,08,15,02,13,15.30
2007,08,15,02,14,15.30
2007,08,15,02,15,15.30
2007,08,15,02,16,15.30
2007,08,15,02,17,15.30
2007,08,15,02,18,15.30
2007,08,15,02,19,15.30
2007,08,15,02,20,15.30
2007,08,15,02,21,15.30
2007,08,15,02,22,15.30
2007,08,15,02,23,15.30
2007,08,15,02,24,15.30
2007,08,15,02,25,15.30
2007,08,15,02,26,15.20
2007,08,15,02,27,15.20
2007,08,15,02,28,15.20
2007,08,15,02,29,15.20
2007,08,15,02,30,15.10
2007,08,15,02,31,15.10
2007,08,15,02,32,15.10
2007,08,15,02,33,15.20
2007,08,15,02,34,15.30
2007,08,15,02,35,15.30
2007,08,15,02,36,15.50
2007,08,15,02,37,15.50
2007,08,15,02,38,15.60
2007,08,15,02,39,15.70
2007,08,15,02,40,15.70
2007,08,15,02,41,15.70
2007,08,15,02,42,15.80
2007,08,15,02,43,15.80
2007,08,15,02,44,15.80
2007,08,15,02,45,15.80
2007,08,15,02,46,15.80
2007,08,15,02,47,15.80
2007,08,15,02,48,15.70
2007,08,15,02,49,15.70
2007,08,15,02,50,15.70
2007,08,15,02,51,15.60
2007,08,15,02,52,15.50
2007,08,15,02,53,15.50
2007,08,15,02,54,15.40
2007,08,15,02,55,15.40
2007,08,15,02,56,15.30
2007,08,15,02,57,15.30
2007,08,15,02,58,15.20
2007,08,15,02,59,15.20
2007,08,15,03,00,15.10
2007,08,15,03,01,15.10
2007,08,15,03,02,15.00
2007,08,15,03,03,15.00
2007,08,15,03,04,15.00
2007,08,15,03,05,14.90
2007,08,15,03,06,14.90
2007,08,15,03,07,14.80
2007,08,15,03,08,14.80
2007,08,15,03,09,14.80
2007,08,15,03,10,14.80
2007,08,15,03,11,14.80
2007,08,15,03,12,14.80
2007,08,15,03,13,14.70
2007,08,15,03,14,14.70
2007,08,15,03,15,14.70
2007,08,15,03,16,14.70
2007,08,15,03,17,14.70
2007,08,15,03,18,14.70
2007,08,15,03,19,14.70
2007,08,15,03,20,14.70
2007,08,15,03,21,14.60
2007,08,15,03,22,14.60
2007,08,15,03,23,14.60
2007,08,15,03,24,14.60
2007,08,15,03,25,14.60
2007,08,15,03,26,14.60
2007,08,15,03,27,14.60
2007,08,15,03,28,14.50
2007,08,15,03,29,14.50
2007,08,15,03,30,14.50
2007,08,15,03,31,14.50
2007,08,15,03,32,14.50
2007,08,15,03,33,14.40
2007,08,15,03,34,14.40
2007,08,15,03,35,14.40
2007,08,15,03,36,14.40
2007,08,15,03,37,14.30
2007,08,15,03,38,14.20
2007,08,15,03,39,14.20
2007,08,15,03,40,14.20
2007,08,15,03,41,14.20
2007,08,15,03,42,14.20
2007,08,15,03,43,14.10
2007,08,15,03,44,14.10
2007,08,15,03,45,14.10
2007,08,15,03,46,14.20
2007,08,15,03,47,14.20
2007,08,15,03,48,14.20
2007,08,15,03,49,14.20
2007,08,15,03,50,14.10
2007,08,15,03,51,14.10
2007,08,15,03,52,14.10
2007,08,15,03,53,14.10
2007,08,15,03,54,14.10
2007,08,15,03,55,14.00
2007,08,15,03,56,14.00
2007,08,15,03,57,14.00
2007,08,15,03,58,14.00
2007,08,15,03,59,14.00
2007,08,15,04,00,13.90
2007,08,15,04,01,13.90
2007,08,15,04,02,13.90
2007,08,15,04,03,13.90
2007,08,15,04,04,13.80
2007,08,15,04,05,13.80
2007,08,15,04,06,13.80
2007,08,15,04,07,13.80
2007,08,15,04,08,13.80
2007,08,15,04,09,13.80
2007,08,15,04,10,13.70
2007,08,15,04,11,13.70
2007,08,15,04,12,13.70
2007,08,15,04,13,13.70
2007,08,15,04,14,13.70
2007,08,15,04,15,13.70
2007,08,15,04,16,13.70
2007,08,15,04,17,13.70
2007,08,15,04,18,13.70
2007,08,15,04,19,13.70
2007,08,15,04,20,13.70
2007,08,15,04,21,13.70
2007,08,15,04,22,13.70
2007,08,15,04,23,13.70
2007,08,15,04,24,13.80
2007,08,15,04,25,13.90
2007,08,15,04,26,13.90
2007,08,15,04,27,14.00
2007,08,15,04,28,14.00
2007,08,15,04,29,14.10
2007,08,15,04,30,14.10
2007,08,15,04,31,14.10
2007,08,15,04,32,14.20
2007,08,15,04,33,14.20
2007,08,15,04,34,14.20
2007,08,15,04,35,14.20
2007,08,15,04,36,14.20
2007,08,15,04,37,14.10
2007,08,15,04,38,14.10
2007,08,15,04,39,14.10
2007,08,15,04,40,14.00
2007,08,15,04,41,14.00
2007,08,15,04,42,14.00
2007,08,15,04,43,13.90
2007,08,15,04,44,13.90
2007,08,15,04,45,13.80
2007,08,15,04,46,13.80
2007,08,15,04,47,13.80
2007,08,15,04,48,13.70
2007,08,15,04,49,13.70
2007,08,15,04,50,13.70
2007,08,15,04,51,13.70
2007,08,15,04,52,13.70
2007,08,15,04,53,13.70
2007,08,15,04,54,13.60
2007,08,15,04,55,13.60
2007,08,15,04,56,13.60
2007,08,15,04,57,13.60
2007,08,15,04,58,13.50
2007,08,15,04,59,13.50
2007,08,15,05,00,13.50
2007,08,15,05,01,13.50
2007,08,15,05,02,13.50
2007,08,15,05,03,13.50
2007,08,15,05,04,13.50
2007,08,15,05,05,13.50
2007,08,15,05,06,13.50
2007,08,15,05,07,13.50
2007,08,15,05,08,13.50
2007,08,15,05,09,13.50
2007,08,15,05,10,13.50
2007,08,15,05,11,13.50
2007,08,15,05,12,13.50
2007,08,15,05,13,13.40
2007,08,15,05,14,13.40
2007,08,15,05,15,13.40
2007,08,15,05,16,13.40
2007,08,15,05,17,13.40
2007,08,15,05,18,13.40
2007,08,15,05,19,13.30
2007,08,15,05,20,13.30
2007,08,15,05,21,13.30
2007,08,15,05,22,13.30
2007,08,15,05,23,13.30
2007,08,15,05,24,13.30
2007,08,15,05,25,13.30
2007,08,15,05,26,13.30
2007,08,15,05,27,13.30
2007,08,15,05,28,13.30
2007,08,15,05,29,13.30
2007,08,15,05,30,13.30
2007,08,15,05,31,13.30
2007,08,15,05,32,13.20
2007,08,15,05,33,13.20
2007,08,15,05,34,13.20
2007,08,15,05,35,13.20
2007,08,15,05,36,13.20
2007,08,15,05,37,13.20
2007,08,15,05,38,13.20
2007,08,15,05,39,13.20
2007,08,15,05,40,13.20
2007,08,15,05,41,13.20
2007,08,15,05,42,13.10
2007,08,15,05,43,13.10
2007,08,15,05,44,13.10
2007,08,15,05,45,13.10
2007,08,15,05,46,13.10
2007,08,15,05,47,13.10
2007,08,15,05,48,13.10
2007,08,15,05,49,13.10
2007,08,15,05,50,13.10
2007,08,15,05,51,13.10
2007,08,15,05,52,13.10
2007,08,15,05,53,13.10
2007,08,15,05,54,13.20
2007,08,15,05,55,13.20
2007,08,15,05,56,13.20
2007,08,15,05,57,13.20
2007,08,15,05,58,13.20
2007,08,15,05,59,13.20
2007,08,15,06,00,13.30
2007,08,15,06,01,13.30
2007,08,15,06,02,13.30
2007,08,15,06,03,13.30
2007,08,15,06,04,13.30
2007,08,15,06,05,13.30
2007,08,15,06,06,13.30
2007,08,15,06,07,13.40
2007,08,15,06,08,13.40
2007,08,15,06,09,13.40
2007,08,15,06,10,13.40
2007,08,15,06,11,13.40
2007,08,15,06,12,13.40
2007,08,15,06,13,13.40
2007,08,15,06,14,13.40
2007,08,15,06,15,13.40
2007,08,15,06,16,13.40
2007,08,15,06,17,13.40
2007,08,15,06,18,13.40
2007,08,15,06,19,13.40
2007,08,15,06,20,13.40
2007,08,15,06,21,13.50
2007,08,15,06,22,13.50
2007,08,15,06,23,13.60
2007,08,15,06,24,13.60
2007,08,15,06,25,13.60
2007,08,15,06,26,13.60
2007,08,15,06,27,13.50
2007,08,15,06,28,13.50
2007,08,15,06,29,13.50
2007,08,15,06,30,13.50
2007,08,15,06,31,13.50
2007,08,15,06,32,13.50
2007,08,15,06,33,13.50
2007,08,15,06,34,13.50
2007,08,15,06,35,13.50
2007,08,15,06,36,13.40
2007,08,15,06,37,13.40
2007,08,15,06,38,13.40
2007,08,15,06,39,13.40
2007,08,15,06,40,13.40
2007,08,15,06,41,13.40
2007,08,15,06,42,13.30
2007,08,15,06,43,13.30
2007,08,15,06,44,13.40
2007,08,15,06,45,13.40
2007,08,15,06,46,13.40
2007,08,15,06,47,13.50
2007,08,15,06,48,13.50
2007,08,15,06,49,13.50
2007,08,15,06,50,13.60
2007,08,15,06,51,13.60
2007,08,15,06,52,13.60
2007,08,15,06,53,13.60
2007,08,15,06,54,13.60
2007,08,15,06,55,13.60
2007,08,15,06,56,13.60
2007,08,15,06,57,13.60
2007,08,15,06,58,13.70
2007,08,15,06,59,13.70
2007,08,15,07,00,13.70
2007,08,15,07,01,13.70
2007,08,15,07,02,13.70
2007,08,15,07,03,13.70
2007,08,15,07,04,13.70
2007,08,15,07,05,13.70
2007,08,15,07,06,13.70
2007,08,15,07,07,13.70
2007,08,15,07,08,13.80
2007,08,15,07,09,13.80
2007,08,15,07,10,13.80
2007,08,15,07,11,13.80
2007,08,15,07,12,13.90
2007,08,15,07,13,13.90
2007,08,15,07,14,13.90
2007,08,15,07,15,14.00
2007,08,15,07,16,14.00
2007,08,15,07,17,14.10
2007,08,15,07,18,14.20
2007,08,15,07,19,14.20
2007,08,15,07,20,14.30
2007,08,15,07,21,14.40
2007,08,15,07,22,14.50
2007,08,15,07,23,14.60
2007,08,15,07,24,14.70
2007,08,15,07,25,14.80
2007,08,15,07,26,14.90
2007,08,15,07,27,15.00
2007,08,15,07,28,15.10
2007,08,15,07,29,15.20
2007,08,15,07,30,15.30
2007,08,15,07,31,15.30
2007,08,15,07,32,15.50
2007,08,15,07,33,15.60
2007,08,15,07,34,15.70
2007,08,15,07,35,15.80
2007,08,15,07,36,15.90
2007,08,15,07,37,16.10
2007,08,15,07,38,16.10
2007,08,15,07,39,16.10
2007,08,15,07,40,16.10
2007,08,15,07,41,16.10
2007,08,15,07,42,16.10
2007,08,15,07,43,16.10
2007,08,15,07,44,16.10
2007,08,15,07,45,16.10
2007,08,15,07,46,16.20
2007,08,15,07,47,16.20
2007,08,15,07,48,16.20
2007,08,15,07,49,16.20
2007,08,15,07,50,16.20
2007,08,15,07,51,16.30
2007,08,15,07,52,16.30
2007,08,15,07,53,16.40
2007,08,15,07,54,16.40
2007,08,15,07,55,16.40
2007,08,15,07,56,16.50
2007,08,15,07,57,16.60
2007,08,15,07,58,16.70
2007,08,15,07,59,16.70
2007,08,15,08,00,16.70
2007,08,15,08,01,16.80
2007,08,15,08,02,16.90
2007,08,15,08,03,16.90
2007,08,15,08,04,17.00
2007,08,15,08,05,17.10
2007,08,15,08,06,17.20
2007,08,15,08,07,17.30
2007,08,15,08,08,17.30
2007,08,15,08,09,17.40
2007,08,15,08,10,17.50
2007,08,15,08,11,17.50
2007,08,15,08,12,17.60
2007,08,15,08,13,17.70
2007,08,15,08,14,17.90
2007,08,15,08,15,18.00
2007,08,15,08,16,18.10
2007,08,15,08,17,18.20
2007,08,15,08,18,18.30
2007,08,15,08,19,18.50
2007,08,15,08,20,18.60
2007,08,15,08,21,18.70
2007,08,15,08,22,18.80
2007,08,15,08,23,18.90
2007,08,15,08,24,18.90
2007,08,15,08,25,19.00
2007,08,15,08,26,19.10
2007,08,15,08,27,19.10
2007,08,15,08,28,19.20
2007,08,15,08,29,19.30
2007,08,15,08,30,19.40
2007,08,15,08,31,19.40
2007,08,15,08,32,19.50
2007,08,15,08,33,19.60
2007,08,15,08,34,19.60
2007,08,15,08,35,19.60
2007,08,15,08,36,19.70
2007,08,15,08,37,19.80
2007,08,15,08,38,19.80
2007,08,15,08,39,19.90
2007,08,15,08,40,19.90
2007,08,15,08,41,20.00
2007,08,15,08,42,20.10
2007,08,15,08,43,20.20
2007,08,15,08,44,20.20
2007,08,15,08,45,20.20
2007,08,15,08,46,20.30
2007,08,15,08,47,20.30
2007,08,15,08,48,20.40
2007,08,15,08,49,20.50
2007,08,15,08,50,20.50
2007,08,15,08,51,20.60
2007,08,15,08,52,20.60
2007,08,15,08,53,20.60
2007,08,15,08,54,20.60
2007,08,15,08,55,20.60
2007,08,15,08,56,20.60
2007,08,15,08,57,20.70
2007,08,15,08,58,20.70
2007,08,15,08,59,20.80
2007,08,15,09,00,20.80
2007,08,15,09,01,20.80
2007,08,15,09,02,20.80
2007,08,15,09,03,20.80
2007,08,15,09,04,20.80
2007,08,15,09,05,20.80
2007,08,15,09,06,20.80
2007,08,15,09,07,20.80
2007,08,15,09,08,20.80
2007,08,15,09,09,20.80
2007,08,15,09,10,20.80
2007,08,15,09,11,20.90
2007,08,15,09,12,21.00
2007,08,15,09,13,21.00
2007,08,15,09,14,21.00
2007,08,15,09,15,20.90
2007,08,15,09,16,21.00
2007,08,15,09,17,21.00
2007,08,15,09,18,21.00
2007,08,15,09,19,21.00
2007,08,15,09,20,21.00
2007,08,15,09,21,21.00
2007,08,15,09,22,21.10
2007,08,15,09,23,21.10
2007,08,15,09,24,21.20
2007,08,15,09,25,21.20
2007,08,15,09,26,21.30
2007,08,15,09,27,21.30
2007,08,15,09,28,21.40
2007,08,15,09,29,21.40
2007,08,15,09,30,21.40
2007,08,15,09,31,21.40
2007,08,15,09,32,21.50
2007,08,15,09,33,21.40
2007,08,15,09,34,21.40
2007,08,15,09,35,21.60
2007,08,15,09,36,21.60
2007,08,15,09,37,21.60
2007,08,15,09,38,21.60
2007,08,15,09,39,21.60
2007,08,15,09,40,21.60
2007,08,15,09,41,21.60
2007,08,15,09,42,21.60
2007,08,15,09,43,21.60
2007,08,15,09,44,21.60
2007,08,15,09,45,21.60
2007,08,15,09,46,21.70
2007,08,15,09,47,21.70
2007,08,15,09,48,21.60
2007,08,15,09,49,21.60
2007,08,15,09,50,21.60
2007,08,15,09,51,21.60
2007,08,15,09,52,21.60
2007,08,15,09,53,21.70
2007,08,15,09,54,21.70
2007,08,15,09,55,21.70
2007,08,15,09,56,21.70
2007,08,15,09,57,21.70
2007,08,15,09,58,21.70
2007,08,15,09,59,21.80
2007,08,15,10,00,21.80
2007,08,15,10,01,21.80
2007,08,15,10,02,21.90
2007,08,15,10,03,22.00
2007,08,15,10,04,22.00
2007,08,15,10,05,22.10
2007,08,15,10,06,22.10
2007,08,15,10,07,22.10
2007,08,15,10,08,22.10
2007,08,15,10,09,22.10
2007,08,15,10,10,22.10
2007,08,15,10,11,22.10
2007,08,15,10,12,22.10
2007,08,15,10,13,22.00
2007,08,15,10,14,22.10
2007,08,15,10,15,22.10
2007,08,15,10,16,22.10
2007,08,15,10,17,22.20
2007,08,15,10,18,22.20
2007,08,15,10,19,22.30
2007,08,15,10,20,22.40
2007,08,15,10,21,22.40
2007,08,15,10,22,22.30
2007,08,15,10,23,22.30
2007,08,15,10,24,22.30
2007,08,15,10,25,22.20
2007,08,15,10,26,22.20
2007,08,15,10,27,22.30
2007,08,15,10,28,22.30
2007,08,15,10,29,22.30
2007,08,15,10,30,22.20
2007,08,15,10,31,22.20
2007,08,15,10,32,22.20
2007,08,15,10,33,22.20
2007,08,15,10,34,22.30
2007,08,15,10,35,22.30
2007,08,15,10,36,22.30
2007,08,15,10,37,22.30
2007,08,15,10,38,22.30
2007,08,15,10,39,22.30
2007,08,15,10,40,22.20
2007,08,15,10,41,22.20
2007,08,15,10,42,22.20
2007,08,15,10,43,22.20
2007,08,15,10,44,22.20
2007,08,15,10,45,22.20
2007,08,15,10,46,22.20
2007,08,15,10,47,22.30
2007,08,15,10,48,22.30
2007,08,15,10,49,22.20
2007,08,15,10,50,22.20
2007,08,15,10,51,22.20
2007,08,15,10,52,22.30
2007,08,15,10,53,22.30
2007,08,15,10,54,22.30
2007,08,15,10,55,22.40
2007,08,15,10,56,22.50
2007,08,15,10,57,22.60
2007,08,15,10,58,22.70
2007,08,15,10,59,22.80
2007,08,15,11,00,22.90
2007,08,15,11,01,22.90
2007,08,15,11,02,22.80
2007,08,15,11,03,22.80
2007,08,15,11,04,22.90
2007,08,15,11,05,22.90
2007,08,15,11,06,23.00
2007,08,15,11,07,23.10
2007,08,15,11,08,23.20
2007,08,15,11,09,23.20
2007,08,15,11,10,23.20
2007,08,15,11,11,23.20
2007,08,15,11,12,23.20
2007,08,15,11,13,23.20
2007,08,15,11,14,23.20
2007,08,15,11,15,23.20
2007,08,15,11,16,23.30
2007,08,15,11,17,23.30
2007,08,15,11,18,23.30
2007,08,15,11,19,23.30
2007,08,15,11,20,23.30
2007,08,15,11,21,23.30
2007,08,15,11,22,23.30
2007,08,15,11,23,23.30
2007,08,15,11,24,23.30
2007,08,15,11,25,23.30
2007,08,15,11,26,23.30
2007,08,15,11,27,23.30
2007,08,15,11,28,23.30
2007,08,15,11,29,23.30
2007,08,15,11,30,23.30
2007,08,15,11,31,23.40
2007,08,15,11,32,23.30
2007,08,15,11,33,23.40
2007,08,15,11,34,23.40
2007,08,15,11,35,23.40
2007,08,15,11,36,23.50
2007,08,15,11,37,23.60
2007,08,15,11,38,23.40
2007,08,15,11,39,23.40
2007,08,15,11,40,23.40
2007,08,15,11,41,23.60
2007,08,15,11,42,23.60
2007,08,15,11,43,23.70
2007,08,15,11,44,23.70
2007,08,15,11,45,23.70
2007,08,15,11,46,23.90
2007,08,15,11,47,23.90
2007,08,15,11,48,24.00
2007,08,15,11,49,24.10
2007,08,15,11,50,24.10
2007,08,15,11,51,24.10
2007,08,15,11,52,24.10
2007,08,15,11,53,24.10
2007,08,15,11,54,24.10
2007,08,15,11,55,24.10
2007,08,15,11,56,24.10
2007,08,15,11,57,24.20
2007,08,15,11,58,24.20
2007,08,15,11,59,24.20
2007,08,15,12,00,24.30
2007,08,15,12,01,24.30
2007,08,15,12,02,24.40
2007,08,15,12,03,24.40
2007,08,15,12,04,24.60
2007,08,15,12,05,24.70
2007,08,15,12,06,24.70
2007,08,15,12,07,24.80
2007,08,15,12,08,24.80
2007,08,15,12,09,24.80
2007,08,15,12,10,24.80
2007,08,15,12,11,24.90
2007,08,15,12,12,24.90
2007,08,15,12,13,24.90
2007,08,15,12,14,25.00
2007,08,15,12,15,25.00
2007,08,15,12,16,25.10
2007,08,15,12,17,25.10
2007,08,15,12,18,25.10
2007,08,15,12,19,25.10
2007,08,15,12,20,25.10
2007,08,15,12,21,25.00
2007,08,15,12,22,25.00
2007,08,15,12,23,25.00
2007,08,15,12,24,25.10
2007,08,15,12,25,25.10
2007,08,15,12,26,25.10
2007,08,15,12,27,25.20
2007,08,15,12,28,25.30
2007,08,15,12,29,25.30
2007,08,15,12,30,25.10
2007,08,15,12,31,25.10
2007,08,15,12,32,25.10
2007,08,15,12,33,25.10
2007,08,15,12,34,25.10
2007,08,15,12,35,25.00
2007,08,15,12,36,25.00
2007,08,15,12,37,24.90
2007,08,15,12,38,24.90
2007,08,15,12,39,24.90
2007,08,15,12,40,24.80
2007,08,15,12,41,24.80
2007,08,15,12,42,24.90
2007,08,15,12,43,24.90
2007,08,15,12,44,24.80
2007,08,15,12,45,24.70
2007,08,15,12,46,24.70
2007,08,15,12,47,24.80
2007,08,15,12,48,24.80
2007,08,15,12,49,24.80
2007,08,15,12,50,24.80
2007,08,15,12,51,24.80
2007,08,15,12,52,24.90
2007,08,15,12,53,25.00
2007,08,15,12,54,25.10
2007,08,15,12,55,25.10
2007,08,15,12,56,25.20
2007,08,15,12,57,25.30
2007,08,15,12,58,25.40
2007,08,15,12,59,25.40
2007,08,15,13,00,25.50
2007,08,15,13,01,25.50
2007,08,15,13,02,25.60
2007,08,15,13,03,25.60
2007,08,15,13,04,25.60
2007,08,15,13,05,25.60
2007,08,15,13,06,25.70
2007,08,15,13,07,25.70
2007,08,15,13,08,25.90
2007,08,15,13,09,26.00
2007,08,15,13,10,26.00
2007,08,15,13,11,26.10
2007,08,15,13,12,26.20
2007,08,15,13,13,26.30
2007,08,15,13,14,26.30
2007,08,15,13,15,26.20
2007,08,15,13,16,26.20
2007,08,15,13,17,26.20
2007,08,15,13,18,26.20
2007,08,15,13,19,26.20
2007,08,15,13,20,26.10
2007,08,15,13,21,26.10
2007,08,15,13,22,26.10
2007,08,15,13,23,26.10
2007,08,15,13,24,26.10
2007,08,15,13,25,26.20
2007,08,15,13,26,26.30
2007,08,15,13,27,26.40
2007,08,15,13,28,26.50
2007,08,15,13,29,26.60
2007,08,15,13,30,26.60
2007,08,15,13,31,26.60
2007,08,15,13,32,26.50
2007,08,15,13,33,26.40
2007,08,15,13,34,26.30
2007,08,15,13,35,26.20
2007,08,15,13,36,26.20
2007,08,15,13,37,26.20
2007,08,15,13,38,26.20
2007,08,15,13,39,26.30
2007,08,15,13,40,26.30
2007,08,15,13,41,26.30
2007,08,15,13,42,26.30
2007,08,15,13,43,26.40
2007,08,15,13,44,26.50
2007,08,15,13,45,26.60
2007,08,15,13,46,26.60
2007,08,15,13,47,26.60
2007,08,15,13,48,26.60
2007,08,15,13,49,26.60
2007,08,15,13,50,26.50
2007,08,15,13,51,26.30
2007,08,15,13,52,25.90
2007,08,15,13,53,25.90
2007,08,15,13,54,25.60
2007,08,15,13,55,25.50
2007,08,15,13,56,25.40
2007,08,15,13,57,25.40
2007,08,15,13,58,25.40
2007,08,15,13,59,25.50
2007,08,15,14,00,25.50
2007,08,15,14,01,25.50
2007,08,15,14,02,25.50
2007,08,15,14,03,25.30
2007,08,15,14,04,25.20
2007,08,15,14,05,25.30
2007,08,15,14,06,25.30
2007,08,15,14,07,25.40
2007,08,15,14,08,25.50
2007,08,15,14,09,25.60
2007,08,15,14,10,25.60
2007,08,15,14,11,25.60
2007,08,15,14,12,25.60
2007,08,15,14,13,25.50
2007,08,15,14,14,25.40
2007,08,15,14,15,25.10
2007,08,15,14,16,24.80
2007,08,15,14,17,24.50
2007,08,15,14,18,24.20
2007,08,15,14,19,24.00
2007,08,15,14,20,23.80
2007,08,15,14,21,23.70
2007,08,15,14,22,23.60
2007,08,15,14,23,23.50
2007,08,15,14,24,23.40
2007,08,15,14,25,23.40
2007,08,15,14,26,23.40
2007,08,15,14,27,23.30
2007,08,15,14,28,23.40
2007,08,15,14,29,23.40
2007,08,15,14,30,23.50
2007,08,15,14,31,23.60
2007,08,15,14,32,23.60
2007,08,15,14,33,23.60
2007,08,15,14,34,23.80
2007,08,15,14,35,23.80
2007,08,15,14,36,23.80
2007,08,15,14,37,23.80
2007,08,15,14,38,23.90
2007,08,15,14,39,23.80
2007,08,15,14,40,23.70
2007,08,15,14,41,23.70
2007,08,15,14,42,23.70
2007,08,15,14,43,23.70
2007,08,15,14,44,23.70
2007,08,15,14,45,23.60
2007,08,15,14,46,23.50
2007,08,15,14,47,23.40
2007,08,15,14,48,23.30
2007,08,15,14,49,23.30
2007,08,15,14,50,23.30
2007,08,15,14,51,23.30
2007,08,15,14,52,23.20
2007,08,15,14,53,23.20
2007,08,15,14,54,23.20
2007,08,15,14,55,23.20
2007,08,15,14,56,23.30
2007,08,15,14,57,23.30
2007,08,15,14,58,23.30
2007,08,15,14,59,23.30
2007,08,15,15,00,23.30
2007,08,15,15,01,23.30
2007,08,15,15,02,23.30
2007,08,15,15,03,23.20
2007,08,15,15,04,23.10
2007,08,15,15,05,23.00
2007,08,15,15,06,22.90
2007,08,15,15,07,22.90
2007,08,15,15,08,22.80
2007,08,15,15,09,22.80
2007,08,15,15,10,22.80
2007,08,15,15,11,22.70
2007,08,15,15,12,22.70
2007,08,15,15,13,22.70
2007,08,15,15,14,22.70
2007,08,15,15,15,22.70
2007,08,15,15,16,22.70
2007,08,15,15,17,22.70
2007,08,15,15,18,22.70
2007,08,15,15,19,22.70
2007,08,15,15,20,22.70
2007,08,15,15,21,22.60
2007,08,15,15,22,22.60
2007,08,15,15,23,22.60
2007,08,15,15,24,22.70
2007,08,15,15,25,22.70
2007,08,15,15,26,22.80
2007,08,15,15,27,22.80
2007,08,15,15,28,22.90
2007,08,15,15,29,22.90
2007,08,15,15,30,23.10
2007,08,15,15,31,23.10
2007,08,15,15,32,23.20
2007,08,15,15,33,23.10
2007,08,15,15,34,23.10
2007,08,15,15,35,23.10
2007,08,15,15,36,22.90
2007,08,15,15,37,22.90
2007,08,15,15,38,22.90
2007,08,15,15,39,22.90
2007,08,15,15,40,23.10
2007,08,15,15,41,23.10
2007,08,15,15,42,23.20
2007,08,15,15,43,23.20
2007,08,15,15,44,23.10
2007,08,15,15,45,23.10
2007,08,15,15,46,23.10
2007,08,15,15,47,23.10
2007,08,15,15,48,23.00
2007,08,15,15,49,22.90
2007,08,15,15,50,22.90
2007,08,15,15,51,22.90
2007,08,15,15,52,22.90
2007,08,15,15,53,22.90
2007,08,15,15,54,23.00
2007,08,15,15,55,23.10
2007,08,15,15,56,23.10
2007,08,15,15,57,23.10
2007,08,15,15,58,23.10
2007,08,15,15,59,23.20
2007,08,15,16,00,23.20
2007,08,15,16,01,23.30
2007,08,15,16,02,23.30
2007,08,15,16,03,23.30
2007,08,15,16,04,23.40
2007,08,15,16,05,23.40
2007,08,15,16,06,23.40
2007,08,15,16,07,23.40
2007,08,15,16,08,23.40
2007,08,15,16,09,23.30
2007,08,15,16,10,23.30
2007,08,15,16,11,23.30
2007,08,15,16,12,23.30
2007,08,15,16,13,23.30
2007,08,15,16,14,23.40
2007,08,15,16,15,23.50
2007,08,15,16,16,23.60
2007,08,15,16,17,23.70
2007,08,15,16,18,23.70
2007,08,15,16,19,23.70
2007,08,15,16,20,23.80
2007,08,15,16,21,23.80
2007,08,15,16,22,23.90
2007,08,15,16,23,24.00
2007,08,15,16,24,24.10
2007,08,15,16,25,24.10
2007,08,15,16,26,24.10
2007,08,15,16,27,24.20
2007,08,15,16,28,24.20
2007,08,15,16,29,24.10
2007,08,15,16,30,24.10
2007,08,15,16,31,24.10
2007,08,15,16,32,24.10
2007,08,15,16,33,24.10
2007,08,15,16,34,24.10
2007,08,15,16,35,24.10
2007,08,15,16,36,24.10
2007,08,15,16,37,24.10
2007,08,15,16,38,24.10
2007,08,15,16,39,24.10
2007,08,15,16,40,24.10
2007,08,15,16,41,24.10
2007,08,15,16,42,24.20
2007,08,15,16,43,24.30
2007,08,15,16,44,24.30
2007,08,15,16,45,24.40
2007,08,15,16,46,24.50
2007,08,15,16,47,24.50
2007,08,15,16,48,24.50
2007,08,15,16,49,24.60
2007,08,15,16,50,24.60
2007,08,15,16,51,24.60
2007,08,15,16,52,24.70
2007,08,15,16,53,24.80
2007,08,15,16,54,24.90
2007,08,15,16,55,25.00
2007,08,15,16,56,25.00
2007,08,15,16,57,25.10
2007,08,15,16,58,25.20
2007,08,15,16,59,25.20
2007,08,15,17,00,25.20
2007,08,15,17,01,25.20
2007,08,15,17,02,25.30
2007,08,15,17,03,25.40
2007,08,15,17,04,25.40
2007,08,15,17,05,25.50
2007,08,15,17,06,25.60
2007,08,15,17,07,25.70
2007,08,15,17,08,25.70
2007,08,15,17,09,25.90
2007,08,15,17,10,26.00
2007,08,15,17,11,26.10
2007,08,15,17,12,26.10
2007,08,15,17,13,26.10
2007,08,15,17,14,26.00
2007,08,15,17,15,25.90
2007,08,15,17,16,25.90
2007,08,15,17,17,25.90
2007,08,15,17,18,25.90
2007,08,15,17,19,25.90